Weather History for Mandan, ND

Change the Weather History Date:

Thursday, March 28, 2013

  Actual Average (KBIS) Record (KBIS)
Temperature  
Mean Temperature 30 °F 35 °F  
Max Temperature 44 °F 47 °F 78 °F (1986)
Min Temperature 17 °F 24 °F -7 °F (1964)
Degree Days  
Heating Degree Days 34 30  
Month to date heating degree days 1003  
Since 1 July heating degree days 7434  
Cooling Degree Days 0 0  
Month to date cooling degree days 0  
Year to date cooling degree days 0  
Moisture  
Dew Point 27 °F    
Average Humidity 94    
Maximum Humidity 100    
Minimum Humidity 61    
Precipitation  
Precipitation 0.00 in 0.03 in 1.02 in (1900)
Month to date precipitation 0.77  
Year to date precipitation 1.71  
Snow  
Snow 0.00 in 0.20 in 10.20 in (1900)
Month to date snowfall 8.3  
Since 1 July snowfall 45.8  
Snow Depth -    
Sea Level Pressure  
Sea Level Pressure 30.15 in    
Wind  
Wind Speed 6 mph (East)    
Max Wind Speed 14 mph    
Max Gust Speed -    
Visibility 5 miles    
Events Fog , Snow    
T = Trace of Precipitation, MM = Missing Value Source: NWS Daily Summary

Daily Weather History Graph

Daily Weather History Graph

Search for Another Location

Airport:

Trip Planner

Search our weather history database for the weather conditions in past years. The results will help you decide how hot, cold, wet, or windy it might be!

Date:

Astronomy

Mar. 28, 2013 Rise Set
Actual Time 7:30 AM CDT 8:07 PM CDT
Civil Twilight 6:59 AM CDT 8:38 PM CDT
Nautical Twilight 6:23 AM CDT 9:14 PM CDT
Astronomical Twilight 5:45 AM CDT 9:52 PM CDT
Moon 10:11 PM CDT (3/28) 7:52 AM CDT (3/28)
Length of Visible Light 13h 38m
Length of Day
12h 37m
Full, 98% of the Moon is Illuminated
Mar 28
Full
Apr 2
Last Quarter
Apr 10
New
Apr 18
First Quarter
Apr 25
Full

Hourly Weather History & Observations

Time (CDT) Temp. Windchill Dew Point Humidity Pressure Visibility Wind Dir Wind Speed Gust Speed Precip Events Conditions
12:15 AM 24.8 °F 19.1 °F 24.8 °F 100% 30.16 in 5.0 mi ESE 4.6 mph - N/A   Partly Cloudy
12:35 AM 24.8 °F 19.1 °F 24.8 °F 100% 30.16 in 5.0 mi ESE 4.6 mph - N/A   Mostly Cloudy
12:55 AM 24.8 °F 19.1 °F 24.8 °F 100% 30.16 in 5.0 mi East 4.6 mph - N/A   Mostly Cloudy
1:15 AM 24.8 °F 17.9 °F 24.8 °F 100% 30.16 in 4.0 mi East 5.8 mph - N/A   Mostly Cloudy
1:35 AM 24.8 °F 17.9 °F 24.8 °F 100% 30.16 in 5.0 mi ESE 5.8 mph - N/A   Mostly Cloudy
1:55 AM 24.8 °F 17.9 °F 24.8 °F 100% 30.16 in 5.0 mi ESE 5.8 mph - N/A   Mostly Cloudy
2:15 AM 24.8 °F 19.1 °F 24.8 °F 100% 30.15 in 5.0 mi East 4.6 mph - N/A   Clear
2:35 AM 23.0 °F 15.8 °F 23.0 °F 100% 30.15 in 4.0 mi ENE 5.8 mph - N/A   Clear
2:55 AM 23.0 °F 15.8 °F 23.0 °F 100% 30.15 in 4.0 mi East 5.8 mph - N/A   Clear
3:15 AM 23.0 °F 14.7 °F 23.0 °F 100% 30.15 in 3.0 mi ENE 6.9 mph - N/A   Scattered Clouds
3:35 AM 23.0 °F 14.7 °F 23.0 °F 100% 30.15 in 4.0 mi East 6.9 mph - N/A   Overcast
3:55 AM 23.0 °F 17.0 °F 23.0 °F 100% 30.15 in 5.0 mi East 4.6 mph - N/A   Overcast
4:15 AM 23.0 °F - 23.0 °F 100% 30.15 in 5.0 mi Calm Calm - N/A   Overcast
4:35 AM 21.2 °F 16.4 °F 21.2 °F 100% 30.15 in 4.0 mi ESE 3.5 mph - N/A   Scattered Clouds
4:55 AM 21.2 °F 11.7 °F 21.2 °F 100% 30.14 in 4.0 mi ENE 8.1 mph - N/A   Partly Cloudy
5:15 AM 19.4 °F 10.4 °F 19.4 °F 100% 30.14 in 3.0 mi ENE 6.9 mph - N/A   Clear
5:35 AM 19.4 °F 12.8 °F 19.4 °F 100% 30.14 in 4.0 mi East 4.6 mph - N/A   Clear
5:55 AM 19.4 °F 9.5 °F 19.4 °F 100% 30.14 in 5.0 mi East 8.1 mph - N/A   Mostly Cloudy
6:15 AM 19.4 °F 8.6 °F 19.4 °F 100% 30.13 in 4.0 mi East 9.2 mph - N/A   Overcast
6:35 AM 19.4 °F 12.8 °F 19.4 °F 100% 30.14 in 5.0 mi East 4.6 mph - N/A   Overcast
6:55 AM 19.4 °F 11.5 °F 19.4 °F 100% 30.14 in 4.0 mi East 5.8 mph - N/A   Mostly Cloudy
7:15 AM 17.6 °F 7.3 °F 17.6 °F 100% 30.13 in 2.0 mi East 8.1 mph - N/A   Overcast
7:35 AM 17.6 °F 9.3 °F 17.6 °F 100% 30.14 in 0.2 mi East 5.8 mph - N/A Fog Light Freezing Fog
7:55 AM 19.4 °F 11.5 °F 19.4 °F 100% 30.14 in 0.2 mi ENE 5.8 mph - N/A Fog Light Freezing Fog
8:15 AM 19.4 °F 14.3 °F 19.4 °F 100% 30.15 in 0.2 mi East 3.5 mph - N/A Fog Light Freezing Fog
8:35 AM 19.4 °F 14.3 °F 19.4 °F 100% 30.15 in 0.2 mi East 3.5 mph - N/A Fog Light Freezing Fog
8:55 AM 19.4 °F 11.5 °F 19.4 °F 100% 30.15 in 0.2 mi East 5.8 mph - N/A Fog Light Freezing Fog
9:15 AM 19.4 °F 12.8 °F 19.4 °F 100% 30.15 in 0.2 mi East 4.6 mph - N/A Fog Light Freezing Fog
9:35 AM 19.4 °F 14.3 °F 19.4 °F 100% 30.16 in 0.2 mi NE 3.5 mph - N/A Fog Light Freezing Fog
9:55 AM 21.2 °F 16.4 °F 21.2 °F 100% 30.16 in 0.2 mi ENE 3.5 mph - N/A Fog Light Freezing Fog
10:15 AM 21.2 °F - 21.2 °F 100% 30.17 in 0.2 mi Calm Calm - N/A Fog Light Freezing Fog
10:35 AM 23.0 °F 18.4 °F 23.0 °F 100% 30.17 in 0.2 mi NE 3.5 mph - N/A Fog Light Freezing Fog
10:55 AM 24.8 °F 20.5 °F 24.8 °F 100% 30.17 in 0.2 mi NE 3.5 mph - N/A Fog Light Freezing Fog
11:15 AM 24.8 °F 19.1 °F 24.8 °F 100% 30.17 in 0.2 mi ENE 4.6 mph - N/A Fog Light Freezing Fog
11:35 AM 26.6 °F 21.2 °F 26.6 °F 100% 30.17 in 0.2 mi NE 4.6 mph - N/A   Overcast
11:55 AM 28.4 °F - 28.4 °F 100% 30.17 in 0.8 mi Calm Calm - N/A Snow Light Snow
12:15 PM 30.2 °F 25.4 °F 30.2 °F 100% 30.17 in 3.0 mi East 4.6 mph - N/A   Mostly Cloudy
12:35 PM 32.0 °F 27.5 °F 32.0 °F 100% 30.17 in 5.0 mi East 4.6 mph - N/A   Mostly Cloudy
12:55 PM 32.0 °F 26.4 °F 32.0 °F 100% 30.17 in 7.0 mi East 5.8 mph - N/A   Scattered Clouds
1:15 PM 32.0 °F 25.6 °F 32.0 °F 100% 30.16 in 8.0 mi East 6.9 mph - N/A   Clear
1:35 PM 33.8 °F 28.6 °F 33.8 °F 100% 30.16 in 8.0 mi East 5.8 mph - N/A   Clear
1:55 PM 35.6 °F 29.2 °F 35.6 °F 100% 30.16 in 9.0 mi East 8.1 mph - N/A   Clear
2:15 PM 37.4 °F 32.8 °F 37.4 °F 100% 30.16 in 10.0 mi East 5.8 mph - N/A   Clear
2:35 PM 39.2 °F 34.2 °F 35.6 °F 87% 30.15 in 10.0 mi East 6.9 mph - N/A   Clear
2:55 PM 39.2 °F 34.2 °F 35.6 °F 87% 30.15 in 10.0 mi East 6.9 mph - N/A   Clear
3:15 PM 41.0 °F 35.8 °F 35.6 °F 81% 30.14 in 10.0 mi East 8.1 mph - N/A   Clear
3:35 PM 42.8 °F 38.0 °F 35.6 °F 76% 30.14 in 10.0 mi East 8.1 mph - N/A   Clear
3:55 PM 44.6 °F 40.2 °F 35.6 °F 71% 30.13 in 10.0 mi East 8.1 mph - N/A   Clear
4:15 PM 44.6 °F 40.2 °F 35.6 °F 71% 30.13 in 10.0 mi East 8.1 mph - N/A   Clear
4:35 PM 44.6 °F 39.7 °F 35.6 °F 71% 30.13 in 10.0 mi East 9.2 mph - N/A   Clear
4:55 PM 44.6 °F 39.7 °F 35.6 °F 71% 30.13 in 10.0 mi ENE 9.2 mph - N/A   Clear
5:15 PM 44.6 °F 38.8 °F 35.6 °F 71% 30.13 in 10.0 mi East 11.5 mph - N/A   Clear
5:35 PM 44.6 °F 39.2 °F 35.6 °F 71% 30.13 in 10.0 mi ENE 10.4 mph - N/A   Clear
5:55 PM 44.6 °F 40.2 °F 32.0 °F 61% 30.14 in 10.0 mi ENE 8.1 mph - N/A   Clear
6:15 PM 42.8 °F 37.0 °F 35.6 °F 76% 30.14 in 10.0 mi ENE 10.4 mph - N/A   Clear
6:35 PM 41.0 °F 34.3 °F 33.8 °F 76% 30.14 in 10.0 mi East 11.5 mph - N/A   Clear
6:55 PM 41.0 °F 34.7 °F 32.0 °F 70% 30.14 in 10.0 mi East 10.4 mph - N/A   Clear
7:15 PM 39.2 °F 32.0 °F 33.8 °F 81% 30.14 in 10.0 mi ENE 11.5 mph - N/A   Clear
7:35 PM 37.4 °F 30.8 °F 33.8 °F 87% 30.15 in 10.0 mi East 9.2 mph - N/A   Clear
7:55 PM 35.6 °F 28.0 °F 33.8 °F 93% 30.15 in 10.0 mi East 10.4 mph - N/A   Clear
8:15 PM 32.0 °F 23.0 °F 32.0 °F 100% 30.15 in 10.0 mi East 11.5 mph - N/A   Clear
8:35 PM 32.0 °F 22.1 °F 32.0 °F 100% 30.15 in 10.0 mi East 13.8 mph - N/A   Clear
8:55 PM 32.0 °F 22.5 °F 32.0 °F 100% 30.16 in 10.0 mi East 12.7 mph - N/A   Partly Cloudy
9:15 PM 32.0 °F 22.5 °F 32.0 °F 100% 30.16 in 10.0 mi East 12.7 mph - N/A   Partly Cloudy
9:35 PM 30.2 °F 20.8 °F 30.2 °F 100% 30.16 in 8.0 mi East 11.5 mph - N/A   Clear
9:55 PM 30.2 °F 20.8 °F 30.2 °F 100% 30.17 in 7.0 mi East 11.5 mph - N/A   Clear
10:15 PM 28.4 °F 19.1 °F 28.4 °F 100% 30.17 in 5.0 mi East 10.4 mph - N/A   Clear
10:35 PM 28.4 °F 19.7 °F 28.4 °F 100% 30.17 in 4.0 mi ENE 9.2 mph - N/A   Clear
10:55 PM 28.4 °F 19.7 °F 28.4 °F 100% 30.17 in 3.0 mi ENE 9.2 mph - N/A   Scattered Clouds
11:15 PM 26.6 °F 18.2 °F 26.6 °F 100% 30.16 in 0.2 mi ENE 8.1 mph - N/A   Overcast
11:35 PM 26.6 °F 18.2 °F 26.6 °F 100% 30.16 in 0.2 mi ENE 8.1 mph - N/A   Overcast
11:55 PM 26.6 °F 19.1 °F 26.6 °F 100% 30.17 in 0.2 mi East 6.9 mph - N/A   Overcast